View from above orbital plane
|
View from above satellite
|
Ground track
|
The orbit data is extracted from the following two-line orbital elements,
1 22081U 92053B 13144.82035846 .00000215 00000-0 87656-4 0 3012
2 22081 074.0454 268.7240 0036897 242.7559 280.4021 14.32920110 86199
| Epoch (UTC): | 24 May 2013 19:41:18 |
| Eccentricity: | 0.0036897 |
| inclination: | 74.0454° |
| perigee height: | 755 km |
| apogee height: | 808 km |
| right ascension of ascending node: | 268.7240° |
| argument of perigee: | 242.7559° |
| revolutions per day: | 14.32920110 |
| mean anomaly at epoch: | 280.4021° |
| orbit number at epoch: | 8619 |
The dashed part of the orbit path shows where the satellite is in the earth's shadow,
|
|